Weather in Poselok imeni Zhelyabova

Russia / Vologda Oblast     58°57′16″N   36°35′28″E
temp.,
°C
wind,
m/s
gust,
m/s
humid.,
%
clouds,
%
prec.,
mm/h
press.,
hPa
HPBL,
m
6 may, thu
thu600:00+3ese3888100 0.0 1006291
03:00+4ese389388 0.1 1005286
06:00+5ese389699 0.0 1003330
09:00+7se5149399 1.7 1001562
12:00+15sse61372100 0.6 9971397
15:00+14s71480100 3.1 9951423
18:00+11s71584100 1.4 9941466
21:00+6sw51190100 2.1 9981079
7 may, fri
fri700:00+6ssw51187100 0.1 10001108
03:00+5sw51184100 0.2 10021216
06:00+5sw41085100 0.1 10031053
09:00+7sw6107397 0.3 10051234
12:00+10sw61153100 0.3 10052087
15:00+10sw5106459 1.3 10061613
18:00+10ssw487661 1.1 10071196
21:00+5ssw289257 1.4 1009216
8 may, sat
sat800:00+4s2490100 0.0 100983
03:00+5ese2694100 0.0 1008139
06:00+7sse51291100 0.8 10061136
09:00+7sse61392100 3.5 10041044
12:00+7sse51192100 0.3 1003847
15:00+7se41195100 1.6 1001933
18:00+8se41097100 3.4 998711
21:00+8s3997100 5.3 996643
9 may, sun
sun900:00+6se269330 0.3 994185
03:00+5ssw3794100 0.8 995496
06:00+2w61597100 1.2 998802
09:00+3w7169095 2.0 10041159
12:00+9wnw714621 0.0 10091775
15:00+10wnw6104776 0.0 10142109
18:00+10wnw410480 0.0 10171862
21:00+5sw22744 0.0 102037
10 may, mon
mon1000:00+3sw28845 0.0 1022137
03:00+3ssw3108699 0.0 1023219
06:00+5ssw3117534 0.0 1024350
09:00+11ssw5105612 0.0 1024953
12:00+11sw41054100 0.0 10251258
15:00+15sw585398 0.0 10251076
18:00+15ssw486053 0.0 10241091
21:00+11s41278100 0.0 1025376